TimeMDT,TemperatureF,Dew PointF,Humidity,Sea Level PressureIn,VisibilityMPH,Wind Direction,Wind SpeedMPH,Gust SpeedMPH,PrecipitationIn,Events,Conditions,WindDirDegrees,DateUTC
12:56 AM,61.0,46.0,58,29.93,-9999.0,Calm,Calm,-,N/A,,Unknown,0,2013-07-04 06:56:00
1:56 AM,55.9,45.0,67,29.95,-9999.0,Calm,Calm,-,N/A,,Unknown,0,2013-07-04 07:56:00
2:56 AM,54.0,43.0,66,29.95,-9999.0,Calm,Calm,-,N/A,,Unknown,0,2013-07-04 08:56:00
3:56 AM,52.0,43.0,71,29.96,-9999.0,Calm,Calm,-,N/A,,Unknown,0,2013-07-04 09:56:00
4:56 AM,48.9,42.1,77,29.97,-9999.0,Calm,Calm,-,N/A,,Unknown,0,2013-07-04 10:56:00
5:56 AM,48.0,42.1,80,29.97,-9999.0,Calm,Calm,-,N/A,,Unknown,0,2013-07-04 11:56:00
6:56 AM,52.0,44.1,74,29.96,-9999.0,Calm,Calm,-,N/A,,Unknown,0,2013-07-04 12:56:00
7:56 AM,57.9,48.0,70,29.97,-9999.0,ESE,4.6,-,N/A,,Unknown,120,2013-07-04 13:56:00
8:56 AM,57.9,48.9,72,29.99,-9999.0,SE,4.6,-,N/A,,Unknown,130,2013-07-04 14:56:00
9:56 AM,63.0,48.9,60,29.95,-9999.0,ESE,3.5,-,N/A,,Unknown,110,2013-07-04 15:56:00
10:56 AM,64.0,52.0,65,29.94,-9999.0,Calm,Calm,-,N/A,,Unknown,0,2013-07-04 16:56:00
11:56 AM,68.0,46.9,47,29.92,-9999.0,Variable,3.5,-,N/A,,Unknown,0,2013-07-04 17:56:00
12:56 PM,66.9,55.0,66,29.94,-9999.0,Calm,Calm,-,0.05,,Unknown,0,2013-07-04 18:56:00
1:56 PM,69.1,46.9,45,29.92,-9999.0,Variable,4.6,-,N/A,,Unknown,0,2013-07-04 19:56:00
2:56 PM,71.1,48.9,45,29.89,-9999.0,Variable,5.8,-,N/A,,Unknown,0,2013-07-04 20:56:00
3:56 PM,78.1,39.9,25,29.85,-9999.0,WNW,6.9,-,N/A,,Unknown,290,2013-07-04 21:56:00
4:56 PM,77.0,42.1,29,29.85,-9999.0,Variable,6.9,-,N/A,,Unknown,0,2013-07-04 22:56:00
5:56 PM,69.1,44.1,40,29.89,-9999.0,NW,12.7,24.2,N/A,,Unknown,310,2013-07-04 23:56:00
6:56 PM,59.0,51.1,75,29.97,-9999.0,WNW,9.2,19.6,N/A,,Unknown,300,2013-07-05 00:56:00
7:56 PM,55.0,50.0,83,29.92,-9999.0,Calm,Calm,-,0.06,,Unknown,0,2013-07-05 01:56:00
8:56 PM,54.0,53.1,97,29.95,-9999.0,Calm,Calm,-,N/A,,Unknown,0,2013-07-05 02:56:00
9:56 PM,51.1,50.0,96,29.96,-9999.0,Calm,Calm,-,N/A,,Unknown,0,2013-07-05 03:56:00
10:56 PM,48.9,48.0,97,29.94,-9999.0,Calm,Calm,-,N/A,,Unknown,0,2013-07-05 04:56:00
11:56 PM,48.0,46.9,96,29.92,-9999.0,Calm,Calm,-,N/A,,Unknown,0,2013-07-05 05:56:00